sat.trackr.live / text

‹ back to catalog

HEAD-3E

NORAD 57630 · 2023-121E

PAYLOAD ACTIVE UNKNOWN

§ Identity

Operator
Country
PRC
Launch date
2023-08-14
Launch site
XICLF
Launch vehicle
Mass (kg)
RCS (m²)

External: N2YO · Heavens-Above · Gunter

§ Orbital elements

Epoch: 2026-09-21T22:21:20.729952Z

Period
98.36 min
Inclination
45.0023°
Eccentricity
0.0007933
Mean motion
14.63992317 rev/d
Perigee alt
674.7 km
Apogee alt
685.9 km
Semi-major
7,058.4 km
B*
1.2807e-4
RAAN
169.4716°
Arg perigee
40.3991°
Mean anomaly
319.7455°
Rev number
16,606

§ Raw data

HEAD-3E1 57630U 23121E   26264.93148993  .00000513  00000+0  12807-3 0  99952 57630  45.0023 169.4716 0007933  40.3991 319.7455 14.63992317166067

JSON: /api/v1/satellites/57630 · /tle

For live sub-satellite position, see the globe view (requires WebGL).

§ Visibility from observer

Set your observer location to see the next 7 days of passes ≥ 10°. The values pass through the URL so the page stays shareable.

No JS? Fill the form by hand. The geolocation button needs JavaScript.